Regional Weather Roundup
Issued by NWS

Home | Current Version | Previous Version | Graphics & Text | Print | Product List | Glossary On
Versions: 1 2 3 4 5 6 7 8 9 10 11 12 13 14 15 16 17 18 19 20 21 22 23 24 25 26 27 28 29 30 31 32 33 34 35 36 37 38 39 40 41 42 43 44 45 46 47 48 49 50
000
ASUS43 KBIS 050402
RWRND

NORTH DAKOTA REGIONAL WEATHER ROUNDUP
NATIONAL WEATHER SERVICE BISMARCK ND
1000 PM CST SUN DEC 04 2016

NOTE: "FAIR" INDICATES FEW OR NO CLOUDS BELOW 12,000 FEET WITH NO
SIGNIFICANT WEATHER AND/OR OBSTRUCTIONS TO VISIBILITY.


NDZ001>003-009>011-017-050500-
NORTHWEST NORTH DAKOTA

CITY           SKY/WX    TMP DP  RH WIND       PRES   REMARKS
WILLISTON      MOCLDY    21  17  84 CALM      29.53F
MINOT          CLOUDY    15  12  88 CALM      29.59S
MINOT AFB      CLOUDY    14  10  85 E2        29.59F FOG
$$

NDZ018>021-031>035-040>046-050500-
SOUTHWEST NORTH DAKOTA

CITY           SKY/WX    TMP DP  RH WIND       PRES   REMARKS
BISMARCK       PTCLDY    18  16  92 NE6       29.64S WCI  10
DICKINSON      CLOUDY    29  22  75 S7        29.52F
GARRISON         N/A     19  17  92 E3        29.59F
HETTINGER ARPT CLOUDY    29  21  72 SE6       29.56F
$$

NDZ004>008-012>016-024-026-027-054-050500-
NORTHEAST NORTH DAKOTA

CITY           SKY/WX    TMP DP  RH WIND       PRES   REMARKS
GRAND FORKS    CLOUDY    30  25  81 W9        29.67R
GRND FRKS AFB  CLOUDY    28  25  88 W9        29.67S WCI  19
DEVILS LAKE    FOG       23  22  96 NW5       29.65S VSB 3/4 WCI  17
$$

NDZ022-023-025-028>030-036>039-047>053-050500-
SOUTHEAST NORTH DAKOTA

CITY           SKY/WX    TMP DP  RH WIND       PRES   REMARKS
FARGO          PTCLDY    30  26  85 SW9       29.69S
JAMESTOWN      CLEAR     22  19  89 W5        29.65S WCI  16
$$





USA.gov is the U.S. government's official web portal to all federal, state and local government web resources and services.